Regional Weather Roundup
Issued by NWS

Home | Current Version | Previous Version | Graphics & Text | Print | Product List | Glossary On
Versions: 1 2 3 4 5 6 7 8 9 10 11 12 13 14 15 16 17 18 19 20 21 22 23 24 25 26 27 28 29 30 31 32 33 34 35 36 37 38 39 40 41 42 43 44 45 46 47 48 49 50
000
ASUS43 KDMX 111303
RWRIA

WEATHER ROUNDUP FOR IOWA
NATIONAL WEATHER SERVICE DES MOINES IA
700 AM CST THU FEB 11 2016

NOTE: "FAIR" INDICATES FEW OR NO CLOUDS BELOW 12,000 FEET WITH NO
SIGNIFICANT WEATHER AND/OR OBSTRUCTIONS TO VISIBILITY.

* - THESE STATIONS ARE NOT NWS STATIONS...THUS NOT UNDER NWS
QUALITY CONTROL.  THEY ALSO DO NOT REPORT WEATHER SUCH
AS PRECIPITATION OR FOG.

IAZ001>003-012>014-020>022-031>034-043>046-111400-
   NORTHWEST IOWA

CITY           SKY/WX    TMP DP  RH WIND       PRES   REMARKS
CARROLL *      CLOUDY    10   3  72 E6        30.30S WCI   1
CHEROKEE *     CLOUDY    14   7  73 CALM      30.29R
DENISON *      CLOUDY    12   5  73 E8        30.28R WCI   1
LE MARS *      CLOUDY    14   7  73 CALM      30.30S
ORANGE CITY *  CLOUDY    12   7  79 SE3       30.27R
SHELDON *      CLOUDY    12   7  79 SE6       30.26R WCI   3
SIOUX CITY     CLOUDY    17   9  70 E6        30.30S WCI   9
SPENCER        CLOUDY    10   2  69 E7        30.28R WCI  -1
STORM LAKE *   CLOUDY    12   7  79 E7        30.27R WCI   2
$$

IAZ055>058-069>071-079>083-090>094-111400-
   SOUTHWEST IOWA

CITY           SKY/WX    TMP DP  RH WIND       PRES   REMARKS
ATLANTIC *     CLOUDY    12   3  67 E9        30.29F WCI   0
AUDUBON *      CLOUDY    10   3  72 E7        30.28S WCI   0
CLARINDA *     CLOUDY    14   9  79 NE7       30.32F WCI   4
COUNCIL BLFS * CLOUDY    12   5  73 NE6       30.29R WCI   3
CRESTON *      CLOUDY     9   3  78 E3        30.30R
HARLAN  *      CLOUDY    12   5  73 E10       30.33R WCI  -1
LAMONI         CLOUDY    10   5  80 N9        30.30R WCI  -3
RED OAK *      CLOUDY    14   7  73 E3        30.31S
SHENANDOAH *   CLOUDY    16  10  79 NE10      30.31S WCI   3
$$

IAZ047>049-059>061-072>074-084-111400-
   CENTRAL IOWA

CITY           SKY/WX    TMP DP  RH WIND       PRES   REMARKS
AMES           CLOUDY    -2  -5  87 N3        30.33R
ANKENY *       PTCLDY     1  -4  78 N5        30.34S WCI  -8
BOONE *        CLOUDY     0  -6  78 NE7       30.30S WCI -13
CHARITON *     CLOUDY     7  -2  66 N6        30.31R WCI  -3
DES MOINES     PTCLDY     7  -2  66 NE9       30.32R WCI  -7
GRINNELL*      PTCLDY     3  -2  78 NW5       30.32R WCI  -6
KNOXVILLE *    PTCLDY     3  -4  72 NW6       30.32R WCI  -8
MARSHALLTOWN   PTCLDY     0  -5  79 N6        30.32R WCI -12
NEWTON *       PTCLDY     3  -4  72 CALM      30.32R
PELLA *        CLOUDY     3  -2  79 CALM      30.34R
$$

IAZ004>006-015-016-023>025-035-036-111400-
   NORTH CENTRAL IOWA

CITY           SKY/WX    TMP DP  RH WIND       PRES   REMARKS
ALGONA *       PTCLDY     0  -4  85 CALM      30.28F
CLARION *      PTCLDY    -4 -11  71 CALM      30.31S
ESTHERVILLE    CLOUDY    -5  -8  87 CALM      30.28S
FORT DODGE *   PTCLDY     1  -8  66 CALM      30.32R
MASON CITY     PTCLDY    -4  -9  79 NW3       30.31S
FOREST CITY *    N/A     -4  -8  84 CALM      30.29F
WEBSTER CITY * CLEAR     -2  -8  78 CALM      30.30R
IOWA FALLS *     N/A     -2  -8  78 CALM      30.32R
$$

IAZ007>011-017>019-026>030-037>042-050>054-066-111400-
   NORTHEAST IOWA

CITY           SKY/WX    TMP DP  RH WIND       PRES   REMARKS
CEDAR RAPIDS   CLOUDY     3   0  87 NW5       30.31R WCI  -6
CHARLES CITY * CLOUDY    -2  -8  78 N6        30.32R WCI -14
CLINTON *      CLEAR      3  -1  83 N8        30.32R WCI -10
DECORAH *      PTCLDY    -2  -6  84 CALM      30.30R
DUBUQUE        CLEAR      4  -2  76 N7        30.28R WCI  -8
MONTICELLO *   CLOUDY     5  -2  72 CALM      30.31S HAZE
OELWEIN *      CLOUDY    -2  -9  71 CALM      30.32R
WATERLOO       PTCLDY    -3  -8  79 NW5       30.33R WCI -13
$$

IAZ064-065-067-068-078-111400-
   EAST CENTRAL IOWA

CITY           SKY/WX    TMP DP  RH WIND       PRES   REMARKS
DAVENPORT      CLEAR      5  -1  76 N3        30.32R
IOWA CITY      PTCLDY     9   1  70 N6        30.35R WCI  -1
MT. PLEASANT * CLOUDY    10   4  77 N6        30.33R WCI   0
MUSCATINE *    PTCLDY     9   1  72 CALM      30.35S
QUAD CITIES    CLOUDY    10   0  63 N6        30.32R WCI   0
$$

IAZ062-063-075>077-085>089-095>099-111400-
   SOUTHEAST IOWA

CITY           SKY/WX    TMP DP  RH WIND       PRES   REMARKS
BURLINGTON     PTCLDY     8   3  80 N6        30.31R WCI  -2
FAIRFIELD *    CLOUDY     3  -2  78 N3        30.33R
FORT MADISON * CLOUDY     7   1  78 N3        30.32R
KEOKUK *       PTCLDY    10   5  79 N6        30.31R WCI   1
OSKALOOSA *      N/A      5   0  78 N5        30.33R WCI  -4
OTTUMWA        CLOUDY     5   1  83 N6        30.33R WCI  -6
WASHINGTON *   PTCLDY     7   1  78 N6        30.33S WCI  -3
$$

ABBREVIATIONS USED IN REMARKS
   TC - TEMPERATURES IN CELSIUS
  WCI - WIND CHILL INDEX
   HX - HEAT INDEX
  VSB - VISIBILITY
$$




USA.gov is the U.S. government's official web portal to all federal, state and local government web resources and services.